Flag for Germany Weather past 2 weeks in Hofheim am Taunus, Hesse, Germany

Now
57 °F

Partly sunny.


Feels Like: 56 °F
Forecast: 55 / 67 °F
Wind: 6 mph from Northeast

Location: Wiesbaden Airport

Current Time: Sep 2, 2015 at 8:36:45 AM

Latest Report: Sep 2, 2015 at 7:58 AM


Visibility: 3 mi

Pressure: 30.07 "Hg

Humidity: 88%

Dew point: 54 °F

Location of Hofheim am TaunusLocation

Historic Weather in Hofheim am Taunus — Graph

°F

Hofheim am Taunus temperature yesterday

Maximum temperature yesterday: 75 °F (at 11:58 AM)
Minimum temperature yesterday: 59 °F (at 10:58 PM)
Average temperature yesterday: 68 °F

Past Weeks' High & Low Weather Summary

 TemperatureHumidityPressure
High93 °F (Aug 31, 3:58 PM)100% (Aug 23, 8:58 PM)30.29 "Hg (Aug 23, 8:58 PM)
Low51 °F (Aug 19, 5:58 AM)24% (Aug 22, 4:58 PM)29.66 "Hg (Aug 23, 6:58 PM)
Average68 °F69%30.00 "Hg
* Reported Aug 18 7:01 AM — Sep 2 6:58 AM, Hofheim am Taunus, Weather by CustomWeather, © 2015

Note: Actual official high and low records may vary slightly from our data, if they occured in-between our weather recording intervals... More about our weather records

Advertising

Hofheim am Taunus weather history for previous 24 hours

 ConditionsComfort  
Time TempWeatherWind HumidityBarometerVisibility
6:58 AM
Wed, Sep 2
55 °FFog.5 mph94%30.06 "Hg4 mi
5:58 AM55 °FFog.2 mph97%30.06 "Hg6 mi
4:58 AM55 °FOvercast.2 mph94%30.06 "HgN/A
4:02 AM55 °FPartly cloudy.5 mph94%30.07 "HgN/A
2:58 AM55 °FPassing clouds.2 mph100%30.07 "HgN/A
1:58 AM57 °FPassing clouds.1 mph92%30.06 "HgN/A
12:58 AM57 °FPassing clouds.2 mph94%30.06 "HgN/A
10:58 PM
Tue, Sep 1
59 °FPassing clouds.5 mph86%30.03 "HgN/A
9:58 PM59 °FPassing clouds.6 mph84%30.03 "HgN/A
8:58 PM61 °FSunny.7 mph82%30.00 "HgN/A
7:58 PM64 °FMostly cloudy.2 mph73%29.98 "HgN/A
6:58 PM64 °FPartly sunny.13 mph78%29.95 "HgN/A
6:01 PM64 °FBroken clouds.9 mph78%29.95 "HgN/A
4:58 PM64 °FBroken clouds.10 mph78%29.91 "HgN/A
3:58 PM65 °FCloudy.15 mph83%29.90 "HgN/A
3:04 PM64 °FPartly sunny.10 mph94%29.87 "HgN/A
2:58 PM64 °FDrizzle. Partly sunny.10 mph90%29.85 "HgN/A
1:58 PM63 °FLight rain. More clouds than sun.13 mph94%29.81 "HgN/A
12:58 PM70 °FMostly cloudy.16 mph67%29.76 "HgN/A
11:58 AM75 °FBroken clouds.5 mph67%29.77 "HgN/A
10:58 AM75 °FPassing clouds.7 mph70%29.77 "HgN/A
9:58 AM73 °FPassing clouds.5 mph74%29.76 "HgN/A
8:58 AM73 °FPartly sunny.5 mph69%29.76 "HgN/A
Weather by CustomWeather, © 2015

See weather overviewHow to use our weather pages